DAL511 KATL-EDDF

Flight info

Callsign DAL511
Flight time N/A
Altitude 37000
Route PLMMR3 BURGG Q22 BEARI DCT FAK DCT RBV Q430 RIFLE DCT YAHOO DCT WHALE N251B NICSO/M085F370 DCT 48N050W 49N040W 50N030W 51N020W DCT DINIM DCT ELSOX DCT LESLU/N0487F370 DCT OXLOW DCT KONAN DCT KOK UL607 SPI T180 NIVNU T847 IMCOM IMCOM1A
Aircraft A359/H-SDE2E3GHIJ3J4J5LM1ORWXY/LB1D1

Departure

Time 2026-05-05 18:02
Airport Hartsfield Jackson Atlanta International Airport (KATL)

Arrival

Time N/A
Airport Frankfurt Main Airport (EDDF)
Time Latitude Longitude Altitude Speed Heading
2026-05-05 17:42 33.63781 -84.42641 1042 ft 0 kts 89°
2026-05-05 17:52 33.63781 -84.42666 1042 ft 3 kts 89°
2026-05-05 17:53 33.63781 -84.42691 1042 ft 3 kts 89°
2026-05-05 17:53 33.63781 -84.42716 1042 ft 3 kts 89°
2026-05-05 17:53 33.63780 -84.42740 1042 ft 2 kts 89°
2026-05-05 17:53 33.63780 -84.42754 1042 ft 2 kts 127°
2026-05-05 17:54 33.63781 -84.42757 1042 ft 0 kts 140°
2026-05-05 17:56 33.63780 -84.42756 1042 ft 3 kts 142°
2026-05-05 17:56 33.63741 -84.42739 1042 ft 7 kts 167°
2026-05-05 17:56 33.63694 -84.42730 1042 ft 7 kts 161°
2026-05-05 17:57 33.63669 -84.42705 1042 ft 8 kts 126°
2026-05-05 17:57 33.63657 -84.42591 1042 ft 12 kts 90°
2026-05-05 17:57 33.63657 -84.42474 1042 ft 16 kts 90°
2026-05-05 17:57 33.63657 -84.42373 1042 ft 19 kts 91°
2026-05-05 17:58 33.63656 -84.42230 1042 ft 21 kts 90°
2026-05-05 17:58 33.63656 -84.42052 1042 ft 21 kts 90°
2026-05-05 17:58 33.63655 -84.41875 1041 ft 22 kts 90°
2026-05-05 17:58 33.63655 -84.41690 1041 ft 22 kts 90°
2026-05-05 17:59 33.63657 -84.41504 1041 ft 22 kts 90°
2026-05-05 17:59 33.63656 -84.41319 1041 ft 22 kts 90°
2026-05-05 17:59 33.63656 -84.41131 1041 ft 23 kts 90°
2026-05-05 17:59 33.63656 -84.40943 1041 ft 23 kts 90°
2026-05-05 18:00 33.63645 -84.40791 1042 ft 16 kts 117°
2026-05-05 18:00 33.63551 -84.40748 1042 ft 15 kts 175°
2026-05-05 18:00 33.63477 -84.40804 1042 ft 13 kts 251°
2026-05-05 18:00 33.63472 -84.40910 1042 ft 13 kts 269°
2026-05-05 18:01 33.63472 -84.41119 1041 ft 54 kts 270°
2026-05-05 18:01 33.63472 -84.41889 1042 ft 131 kts 270°
2026-05-05 18:01 33.63474 -84.43266 1084 ft 194 kts 270°
2026-05-05 18:01 33.63510 -84.45031 1585 ft 222 kts 268°
2026-05-05 18:02 33.63347 -84.46912 2540 ft 233 kts 256°
2026-05-05 18:02 33.62893 -84.48798 3361 ft 236 kts 246°
2026-05-05 18:02 33.62199 -84.50634 3917 ft 248 kts 241°
2026-05-05 18:02 33.61403 -84.52505 4463 ft 255 kts 240°
2026-05-05 18:03 33.60575 -84.54409 5193 ft 259 kts 240°
2026-05-05 18:03 33.59707 -84.56299 5921 ft 260 kts 235°
2026-05-05 18:03 33.58445 -84.57818 6627 ft 258 kts 210°
2026-05-05 18:03 33.56752 -84.58508 7335 ft 261 kts 186°
2026-05-05 18:04 33.54915 -84.58563 8080 ft 266 kts 180°
2026-05-05 18:04 33.53056 -84.58516 8843 ft 268 kts 180°
2026-05-05 18:04 33.51175 -84.58486 9559 ft 272 kts 181°
2026-05-05 18:04 33.49260 -84.58382 10198 ft 279 kts 173°
2026-05-05 18:05 33.47422 -84.57598 10828 ft 288 kts 149°
2026-05-05 18:05 33.45998 -84.55872 11458 ft 299 kts 123°
2026-05-05 18:05 33.45323 -84.53513 12074 ft 309 kts 96°
2026-05-05 18:05 33.45517 -84.50936 12741 ft 313 kts 79°
2026-05-05 18:06 33.45692 -84.48299 13361 ft 317 kts 92°
2026-05-05 18:06 33.45670 -84.46526 13771 ft 320 kts 92°
2026-05-05 18:06 33.45641 -84.42957 14575 ft 326 kts 91°
2026-05-05 18:06 33.45624 -84.40226 15182 ft 330 kts 91°
2026-05-05 18:07 33.45670 -84.37469 15747 ft 335 kts 85°
2026-05-05 18:07 33.46115 -84.34715 16313 ft 337 kts 70°
2026-05-05 18:07 33.47089 -84.32171 16856 ft 338 kts 56°
2026-05-05 18:07 33.48534 -84.29955 17410 ft 337 kts 43°
2026-05-05 18:08 33.50169 -84.27968 17960 ft 339 kts 41°
2026-05-05 18:08 33.51849 -84.25958 18503 ft 342 kts 41°
2026-05-05 18:08 33.53529 -84.23933 19039 ft 345 kts 41°
2026-05-05 18:08 33.55221 -84.21883 19575 ft 348 kts 41°
2026-05-05 18:09 33.56925 -84.19811 20089 ft 350 kts 41°
2026-05-05 18:09 33.58647 -84.17712 20596 ft 353 kts 41°
2026-05-05 18:09 33.60372 -84.15608 21090 ft 356 kts 41°
2026-05-05 18:09 33.62124 -84.13470 21579 ft 359 kts 40°
2026-05-05 18:10 33.63879 -84.11331 22046 ft 362 kts 40°
2026-05-05 18:10 33.65661 -84.09159 22515 ft 365 kts 40°
2026-05-05 18:10 33.67441 -84.06975 22992 ft 367 kts 40°
2026-05-05 18:10 33.69223 -84.04786 23432 ft 370 kts 40°
2026-05-05 18:11 33.71032 -84.02569 23865 ft 373 kts 40°
2026-05-05 18:11 33.72856 -84.00332 24304 ft 375 kts 39°
2026-05-05 18:11 33.74682 -83.98096 24733 ft 377 kts 39°
2026-05-05 18:11 33.76521 -83.95837 25171 ft 379 kts 39°
2026-05-05 18:12 33.78379 -83.93554 25589 ft 381 kts 39°
2026-05-05 18:12 33.80250 -83.91258 25986 ft 385 kts 38°
2026-05-05 18:12 33.82126 -83.88948 26462 ft 386 kts 38°
2026-05-05 18:12 33.83996 -83.86641 26871 ft 387 kts 38°
2026-05-05 18:13 33.85895 -83.84305 27230 ft 391 kts 37°
2026-05-05 18:13 33.87776 -83.81988 27617 ft 393 kts 37°
2026-05-05 18:13 33.89683 -83.79628 27991 ft 394 kts 37°
2026-05-05 18:13 33.91610 -83.77251 28317 ft 396 kts 36°
2026-05-05 18:14 33.93532 -83.74878 28673 ft 398 kts 36°
2026-05-05 18:14 33.95416 -83.72414 29018 ft 405 kts 41°
2026-05-05 18:14 33.97149 -83.69720 29360 ft 409 kts 44°
2026-05-05 18:14 33.98849 -83.66948 29736 ft 409 kts 44°
2026-05-05 18:15 34.00528 -83.64200 30165 ft 407 kts 43°
2026-05-05 18:15 34.02210 -83.61448 30538 ft 407 kts 43°
2026-05-05 18:15 34.03890 -83.58707 30884 ft 406 kts 43°
2026-05-05 18:15 34.05565 -83.55970 31270 ft 404 kts 43°
2026-05-05 18:16 34.07235 -83.53249 31506 ft 406 kts 43°
2026-05-05 18:16 34.10651 -83.47682 31784 ft 414 kts 44°
2026-05-05 18:16 34.12351 -83.44893 32166 ft 411 kts 44°
2026-05-05 18:17 34.14047 -83.42109 32502 ft 410 kts 43°
2026-05-05 18:17 34.15731 -83.39348 32796 ft 408 kts 43°
2026-05-05 18:17 34.17416 -83.36584 33053 ft 408 kts 43°
2026-05-05 18:17 34.19092 -83.33835 33295 ft 407 kts 43°
2026-05-05 18:18 34.20748 -83.31114 33557 ft 406 kts 42°
2026-05-05 18:18 34.22439 -83.28333 33824 ft 404 kts 42°
2026-05-05 18:18 34.24076 -83.25639 34095 ft 402 kts 42°
2026-05-05 18:18 34.25734 -83.22909 34287 ft 402 kts 41°
2026-05-05 18:19 34.27393 -83.20180 34438 ft 402 kts 41°
2026-05-05 18:19 34.29046 -83.17458 34614 ft 402 kts 41°
2026-05-05 18:19 34.30706 -83.14722 34751 ft 403 kts 41°
2026-05-05 18:19 34.32374 -83.11990 34911 ft 403 kts 41°
2026-05-05 18:20 34.34039 -83.09272 35119 ft 401 kts 41°
2026-05-05 18:20 34.35698 -83.06561 35286 ft 401 kts 41°
2026-05-05 18:20 34.37360 -83.03848 35393 ft 402 kts 41°
2026-05-05 18:21 34.40687 -82.98408 35528 ft 405 kts 41°
2026-05-05 18:21 34.42383 -82.95627 35662 ft 405 kts 41°
2026-05-05 18:21 34.44034 -82.92918 35757 ft 406 kts 41°
2026-05-05 18:22 34.47413 -82.87374 35880 ft 411 kts 41°
2026-05-05 18:22 34.50827 -82.81763 35983 ft 416 kts 41°
2026-05-05 18:23 34.54277 -82.76079 36088 ft 421 kts 41°
2026-05-05 18:23 34.56016 -82.73210 36211 ft 421 kts 41°
2026-05-05 18:23 34.57740 -82.70358 36380 ft 420 kts 41°
2026-05-05 18:23 34.59473 -82.67495 36492 ft 421 kts 41°
2026-05-05 18:24 34.61212 -82.64619 36620 ft 421 kts 41°
2026-05-05 18:24 34.62921 -82.61792 36728 ft 421 kts 41°
2026-05-05 18:24 34.64651 -82.58927 36851 ft 421 kts 41°
2026-05-05 18:24 34.66382 -82.56057 36987 ft 421 kts 41°
2026-05-05 18:25 34.68111 -82.53174 37080 ft 422 kts 42°
2026-05-05 18:25 34.71550 -82.47306 37099 ft 430 kts 42°
2026-05-05 18:26 34.75050 -82.41330 37101 ft 437 kts 43°
2026-05-05 18:26 34.78611 -82.35246 37101 ft 445 kts 43°
2026-05-05 18:27 34.82172 -82.29161 37093 ft 454 kts 43°
2026-05-05 18:27 34.85868 -82.22830 37096 ft 463 kts 43°
2026-05-05 18:28 34.91541 -82.13090 37100 ft 477 kts 44°
2026-05-05 18:28 34.95420 -82.06415 37099 ft 487 kts 44°
2026-05-05 18:29 34.99364 -81.99615 37086 ft 496 kts 44°
2026-05-05 18:29 35.03375 -81.92685 37082 ft 505 kts 45°
2026-05-05 18:30 35.07562 -81.85749 37080 ft 508 kts 43°
2026-05-05 18:30 35.11863 -81.78916 37081 ft 512 kts 43°
2026-05-05 18:31 35.16179 -81.72010 37081 ft 511 kts 43°
2026-05-05 18:31 35.20463 -81.65086 37083 ft 510 kts 44°
2026-05-05 18:32 35.24753 -81.58132 37082 ft 510 kts 44°
2026-05-05 18:32 35.29018 -81.51194 37081 ft 510 kts 44°
2026-05-05 18:33 35.33252 -81.44289 37082 ft 510 kts 44°
2026-05-05 18:33 35.37514 -81.37329 37082 ft 510 kts 44°
2026-05-05 18:34 35.41764 -81.30380 37081 ft 510 kts 44°
2026-05-05 18:34 35.46017 -81.23418 37084 ft 510 kts 44°
2026-05-05 18:35 35.50253 -81.16460 37082 ft 509 kts 44°
2026-05-05 18:35 35.54496 -81.09476 37081 ft 509 kts 44°
2026-05-05 18:36 35.58713 -81.02530 37082 ft 508 kts 44°
2026-05-05 18:36 35.62936 -80.95564 37082 ft 508 kts 44°
2026-05-05 18:37 35.67158 -80.88573 37076 ft 508 kts 45°
2026-05-05 18:37 35.71372 -80.81577 37072 ft 508 kts 45°
2026-05-05 18:38 35.75582 -80.74577 37073 ft 508 kts 45°
2026-05-05 18:38 35.79776 -80.67593 37073 ft 508 kts 45°
2026-05-05 18:39 35.83952 -80.60628 37072 ft 507 kts 45°
2026-05-05 18:39 35.88137 -80.53631 37073 ft 506 kts 45°
2026-05-05 18:40 35.92309 -80.46640 37072 ft 506 kts 45°
2026-05-05 18:40 35.96475 -80.39646 37072 ft 506 kts 45°
2026-05-05 18:41 36.00656 -80.32637 37072 ft 506 kts 45°
2026-05-05 18:41 36.04831 -80.25620 37074 ft 507 kts 46°
2026-05-05 18:42 36.08995 -80.18607 37071 ft 506 kts 46°
2026-05-05 18:42 36.12454 -80.12772 37066 ft 506 kts 46°
2026-05-05 18:43 36.16614 -80.05743 37066 ft 506 kts 46°
2026-05-05 18:43 36.20773 -79.98715 37065 ft 506 kts 46°
2026-05-05 18:44 36.24897 -79.91719 37065 ft 506 kts 46°
2026-05-05 18:44 36.29044 -79.84666 37057 ft 506 kts 46°
2026-05-05 18:45 36.33175 -79.77623 37055 ft 506 kts 46°
2026-05-05 18:45 36.37328 -79.70535 37048 ft 506 kts 46°
2026-05-05 18:46 36.41450 -79.63487 37042 ft 506 kts 46°
2026-05-05 18:46 36.45579 -79.56412 37050 ft 506 kts 46°
2026-05-05 18:47 36.49711 -79.49312 37043 ft 506 kts 47°
2026-05-05 18:47 36.53841 -79.42204 37042 ft 506 kts 47°
2026-05-05 18:48 36.57956 -79.35109 37049 ft 506 kts 47°
2026-05-05 18:48 36.62071 -79.27999 37044 ft 506 kts 47°
2026-05-05 18:49 36.66176 -79.20891 37042 ft 506 kts 47°
2026-05-05 18:49 36.70280 -79.13769 37047 ft 505 kts 47°
2026-05-05 18:50 36.74380 -79.06635 37026 ft 505 kts 47°
2026-05-05 18:50 36.78442 -78.99555 37025 ft 505 kts 47°
2026-05-05 18:51 36.82534 -78.92411 37028 ft 505 kts 47°
2026-05-05 18:51 36.86608 -78.85269 37024 ft 505 kts 48°
2026-05-05 18:52 36.90654 -78.78101 37018 ft 505 kts 48°
2026-05-05 18:52 36.94695 -78.70931 37017 ft 505 kts 48°
2026-05-05 18:53 36.98740 -78.63749 37017 ft 505 kts 48°
2026-05-05 18:53 37.02784 -78.56559 37017 ft 505 kts 48°
2026-05-05 18:54 37.06829 -78.49354 37016 ft 504 kts 48°
2026-05-05 18:54 37.10859 -78.42160 37018 ft 505 kts 48°
2026-05-05 18:55 37.14870 -78.34988 37008 ft 505 kts 49°
2026-05-05 18:55 37.18897 -78.27788 37006 ft 504 kts 47°
2026-05-05 18:56 37.23473 -78.21223 36998 ft 497 kts 40°
2026-05-05 18:56 37.28259 -78.14956 37007 ft 496 kts 39°
2026-05-05 18:57 37.33066 -78.08729 37008 ft 497 kts 39°
2026-05-05 18:57 37.37842 -78.02517 37008 ft 497 kts 40°
2026-05-05 18:58 37.42650 -77.96230 37007 ft 498 kts 40°
2026-05-05 18:58 37.47438 -77.89952 36999 ft 498 kts 40°
2026-05-05 18:59 37.52227 -77.83663 37007 ft 498 kts 40°
2026-05-05 18:59 37.57125 -77.77525 37008 ft 495 kts 37°
2026-05-05 19:00 37.62208 -77.71632 36991 ft 495 kts 37°
2026-05-05 19:00 37.67278 -77.65739 36990 ft 496 kts 37°
2026-05-05 19:01 37.72326 -77.59777 36983 ft 496 kts 37°
2026-05-05 19:01 37.77333 -77.53815 36984 ft 496 kts 38°
2026-05-05 19:02 37.82327 -77.47850 36985 ft 496 kts 38°
2026-05-05 19:02 37.87378 -77.41810 36987 ft 496 kts 38°
2026-05-05 19:03 37.92349 -77.35857 36975 ft 496 kts 38°
2026-05-05 19:03 37.97372 -77.29831 36971 ft 496 kts 38°
2026-05-05 19:04 38.02390 -77.23800 36965 ft 497 kts 38°
2026-05-05 19:04 38.07408 -77.17756 36963 ft 498 kts 38°
2026-05-05 19:05 38.12439 -77.11681 36961 ft 499 kts 39°
2026-05-05 19:05 38.17467 -77.05600 36963 ft 499 kts 39°
2026-05-05 19:06 38.22496 -76.99503 36970 ft 499 kts 39°
2026-05-05 19:06 38.27497 -76.93433 36964 ft 500 kts 39°
2026-05-05 19:07 38.32528 -76.87311 36963 ft 500 kts 39°
2026-05-05 19:07 38.37541 -76.81201 36961 ft 499 kts 39°
2026-05-05 19:08 38.42565 -76.75062 36963 ft 500 kts 39°
2026-05-05 19:08 38.47586 -76.68914 36962 ft 500 kts 39°
2026-05-05 19:09 38.52580 -76.62791 36958 ft 500 kts 39°
2026-05-05 19:09 38.57625 -76.56591 36952 ft 500 kts 40°
2026-05-05 19:10 38.62600 -76.50462 36953 ft 500 kts 40°
2026-05-05 19:10 38.67607 -76.44280 36953 ft 501 kts 40°
2026-05-05 19:11 38.72632 -76.38063 36953 ft 501 kts 40°
2026-05-05 19:11 38.77643 -76.31854 36944 ft 501 kts 40°
2026-05-05 19:12 38.82648 -76.25641 36952 ft 502 kts 40°
2026-05-05 19:12 38.87666 -76.19396 36943 ft 502 kts 40°
2026-05-05 19:13 38.92666 -76.13162 36944 ft 502 kts 40°
2026-05-05 19:13 38.97663 -76.06916 36942 ft 502 kts 40°
2026-05-05 19:14 39.02671 -76.00645 36946 ft 503 kts 40°
2026-05-05 19:14 39.07701 -75.94337 36935 ft 503 kts 41°
2026-05-05 19:15 39.12721 -75.88023 36920 ft 504 kts 41°
2026-05-05 19:15 39.17720 -75.81724 36922 ft 504 kts 41°
2026-05-05 19:16 39.22734 -75.75392 36922 ft 505 kts 41°
2026-05-05 19:16 39.27753 -75.69041 36920 ft 505 kts 41°
2026-05-05 19:17 39.32766 -75.62683 36919 ft 505 kts 41°
2026-05-05 19:17 39.37769 -75.56323 36905 ft 506 kts 41°
2026-05-05 19:18 39.42783 -75.49939 36923 ft 506 kts 41°
2026-05-05 19:18 39.47800 -75.43537 36919 ft 506 kts 41°
2026-05-05 19:19 39.52821 -75.37117 36921 ft 506 kts 41°
2026-05-05 19:19 39.57832 -75.30695 36910 ft 506 kts 41°
2026-05-05 19:20 39.62828 -75.24277 36923 ft 506 kts 41°
2026-05-05 19:20 39.67828 -75.17841 36909 ft 506 kts 41°
2026-05-05 19:21 39.72792 -75.11441 36906 ft 506 kts 42°
2026-05-05 19:21 39.77795 -75.04974 36911 ft 506 kts 42°
2026-05-05 19:22 39.82783 -74.98510 36911 ft 505 kts 42°
2026-05-05 19:22 39.87759 -74.92048 36897 ft 505 kts 42°
2026-05-05 19:23 39.92724 -74.85585 36889 ft 506 kts 42°
2026-05-05 19:23 39.97703 -74.79093 36902 ft 505 kts 43°
2026-05-05 19:24 40.02661 -74.72616 36890 ft 506 kts 43°
2026-05-05 19:24 40.07644 -74.66089 36885 ft 508 kts 43°
2026-05-05 19:25 40.12630 -74.59542 36888 ft 508 kts 43°
2026-05-05 19:25 40.17548 -74.52960 36881 ft 509 kts 47°
2026-05-05 19:26 40.20842 -74.46525 36882 ft 512 kts 63°
2026-05-05 19:26 40.23471 -74.37878 36890 ft 512 kts 70°
2026-05-05 19:27 40.26105 -74.27602 36896 ft 512 kts 71°
2026-05-05 19:27 40.27988 -74.20192 36897 ft 512 kts 71°
2026-05-05 19:28 40.30255 -74.11405 36902 ft 512 kts 70°
2026-05-05 19:28 40.32552 -74.02573 36918 ft 511 kts 70°
2026-05-05 19:29 40.34833 -73.93798 36904 ft 511 kts 70°
2026-05-05 19:29 40.37110 -73.85041 36894 ft 510 kts 71°
2026-05-05 19:30 40.39389 -73.76200 36901 ft 511 kts 71°
2026-05-05 19:30 40.41657 -73.67372 36910 ft 511 kts 71°
2026-05-05 19:31 40.43925 -73.58513 36908 ft 512 kts 71°
2026-05-05 19:31 40.46180 -73.49684 36906 ft 512 kts 71°
2026-05-05 19:32 40.48429 -73.40827 36922 ft 512 kts 71°
2026-05-05 19:32 40.50678 -73.31932 36911 ft 512 kts 71°
2026-05-05 19:33 40.52918 -73.23040 36929 ft 513 kts 71°
2026-05-05 19:33 40.55157 -73.14126 36928 ft 513 kts 72°
2026-05-05 19:34 40.57386 -73.05214 36932 ft 513 kts 72°
2026-05-05 19:35 40.60723 -72.91815 36934 ft 513 kts 72°
2026-05-05 19:35 40.62936 -72.82895 36941 ft 513 kts 72°
2026-05-05 19:36 40.65146 -72.73945 36953 ft 513 kts 72°
2026-05-05 19:36 40.67345 -72.65005 36952 ft 513 kts 72°
2026-05-05 19:37 40.69298 -72.55956 36963 ft 512 kts 78°
2026-05-05 19:37 40.70703 -72.46814 36962 ft 512 kts 80°
2026-05-05 19:38 40.72035 -72.37599 36955 ft 512 kts 80°
2026-05-05 19:38 40.73351 -72.28384 36952 ft 512 kts 80°
2026-05-05 19:39 40.74673 -72.19145 36953 ft 512 kts 80°
2026-05-05 19:39 40.75988 -72.09930 36953 ft 512 kts 80°
2026-05-05 19:40 40.77300 -72.00694 36953 ft 512 kts 80°
2026-05-05 19:40 40.78602 -71.91465 36953 ft 511 kts 81°
2026-05-05 19:41 40.79898 -71.82220 36953 ft 511 kts 81°
2026-05-05 19:41 40.81186 -71.72977 36953 ft 511 kts 81°
2026-05-05 19:42 40.82456 -71.63795 36953 ft 511 kts 81°
2026-05-05 19:42 40.83720 -71.54613 36953 ft 511 kts 81°
2026-05-05 19:43 40.84985 -71.45367 36943 ft 512 kts 81°
2026-05-05 19:43 40.86246 -71.36096 36951 ft 511 kts 81°
2026-05-05 19:44 40.87496 -71.26852 36953 ft 512 kts 81°
2026-05-05 19:44 40.88740 -71.17575 36962 ft 512 kts 81°
2026-05-05 19:45 40.89966 -71.08383 36962 ft 512 kts 81°
2026-05-05 19:45 40.91197 -70.99089 36962 ft 512 kts 81°
2026-05-05 19:46 40.92423 -70.89788 36962 ft 513 kts 81°
2026-05-05 19:46 40.93636 -70.80519 36962 ft 513 kts 81°
2026-05-05 19:47 40.94844 -70.71215 36962 ft 513 kts 81°
2026-05-05 19:47 40.96039 -70.61955 36962 ft 513 kts 81°
2026-05-05 19:48 40.97231 -70.52667 36985 ft 513 kts 81°
2026-05-05 19:48 40.98421 -70.43334 36979 ft 513 kts 81°
2026-05-05 19:49 40.99598 -70.34033 36989 ft 513 kts 81°
2026-05-05 19:49 41.00770 -70.24712 36990 ft 513 kts 82°
2026-05-05 19:50 41.01937 -70.15367 36990 ft 513 kts 82°
2026-05-05 19:50 41.03084 -70.06121 36991 ft 513 kts 82°
2026-05-05 19:51 41.04234 -69.96788 36999 ft 513 kts 82°
2026-05-05 19:51 41.05375 -69.87460 36999 ft 513 kts 82°
2026-05-05 19:52 41.06580 -69.78155 36998 ft 513 kts 77°
2026-05-05 19:52 41.09193 -69.69364 37000 ft 514 kts 62°
2026-05-05 19:53 41.12656 -69.61070 36999 ft 514 kts 60°
2026-05-05 19:53 41.16224 -69.52855 36998 ft 514 kts 60°
2026-05-05 19:54 41.19783 -69.44603 36990 ft 514 kts 60°
2026-05-05 19:54 41.23309 -69.36335 36990 ft 514 kts 60°
2026-05-05 19:55 41.26819 -69.28057 36990 ft 514 kts 60°
2026-05-05 19:55 41.30309 -69.19800 36990 ft 514 kts 61°
2026-05-05 19:56 41.33808 -69.11505 36990 ft 515 kts 61°
2026-05-05 19:56 41.37323 -69.03149 36989 ft 515 kts 61°
2026-05-05 19:57 41.40805 -68.94849 36989 ft 514 kts 61°
2026-05-05 19:57 41.44285 -68.86529 36981 ft 514 kts 61°
2026-05-05 19:58 41.47759 -68.78200 36980 ft 514 kts 61°
2026-05-05 19:58 41.51229 -68.69859 36982 ft 514 kts 61°
2026-05-05 19:59 41.54683 -68.61534 36979 ft 514 kts 61°
2026-05-05 19:59 41.58150 -68.53151 36979 ft 514 kts 61°
2026-05-05 20:00 41.61608 -68.44767 36976 ft 514 kts 62°
2026-05-05 20:00 41.65049 -68.36402 36971 ft 513 kts 62°
2026-05-05 20:01 41.68485 -68.28028 36983 ft 513 kts 62°
2026-05-05 20:01 41.71920 -68.19629 36964 ft 514 kts 62°
2026-05-05 20:02 41.75348 -68.11223 36953 ft 514 kts 62°
2026-05-05 20:02 41.78745 -68.02868 36953 ft 514 kts 62°
2026-05-05 20:03 41.82162 -67.94439 36953 ft 514 kts 62°
2026-05-05 20:03 41.85573 -67.86005 36953 ft 514 kts 62°
2026-05-05 20:04 41.88975 -67.77567 36953 ft 514 kts 62°
2026-05-05 20:04 41.92358 -67.69152 36952 ft 514 kts 62°
2026-05-05 20:05 41.95770 -67.60641 36945 ft 514 kts 62°
2026-05-05 20:05 41.99129 -67.52235 36935 ft 514 kts 62°
2026-05-05 20:06 42.02504 -67.43760 36942 ft 514 kts 62°
2026-05-05 20:06 42.05879 -67.35268 36944 ft 514 kts 62°
2026-05-05 20:07 42.09247 -67.26775 36944 ft 514 kts 62°
2026-05-05 20:07 42.12609 -67.18264 36944 ft 515 kts 62°
2026-05-05 20:08 42.15964 -67.09745 36944 ft 515 kts 62°
2026-05-05 20:08 42.19324 -67.01187 36943 ft 515 kts 62°
2026-05-05 20:09 42.22834 -66.92813 36943 ft 515 kts 58°
2026-05-05 20:09 42.26659 -66.84653 36944 ft 515 kts 57°
2026-05-05 20:10 42.30484 -66.76463 36944 ft 515 kts 57°
2026-05-05 20:10 42.34240 -66.68237 36953 ft 515 kts 58°
2026-05-05 20:11 42.37969 -66.59976 36953 ft 515 kts 58°
2026-05-05 20:11 42.41054 -66.53116 36953 ft 515 kts 58°
2026-05-05 20:12 42.44785 -66.44802 36952 ft 515 kts 58°
2026-05-05 20:12 42.48496 -66.36519 36953 ft 515 kts 58°
2026-05-05 20:13 42.52808 -66.26871 36953 ft 515 kts 58°
2026-05-05 20:13 42.55900 -66.19928 36953 ft 515 kts 58°
2026-05-05 20:14 42.59598 -66.11603 36953 ft 514 kts 58°
2026-05-05 20:14 42.63296 -66.03255 36962 ft 515 kts 58°
2026-05-05 20:15 42.66985 -65.94905 36958 ft 515 kts 58°
2026-05-05 20:15 42.70662 -65.86556 36943 ft 515 kts 58°
2026-05-05 20:16 42.74318 -65.78234 36943 ft 515 kts 58°
2026-05-05 20:16 42.77980 -65.69871 36944 ft 515 kts 58°
2026-05-05 20:17 42.81637 -65.61497 36942 ft 515 kts 58°
2026-05-05 20:17 42.85300 -65.53091 36943 ft 515 kts 58°
2026-05-05 20:18 42.88956 -65.44676 36944 ft 515 kts 58°
2026-05-05 20:18 42.92597 -65.36270 36943 ft 515 kts 58°
2026-05-05 20:19 42.96235 -65.27841 36943 ft 515 kts 58°
2026-05-05 20:19 42.99864 -65.19411 36934 ft 516 kts 58°
2026-05-05 20:20 43.03475 -65.11000 36934 ft 516 kts 58°
2026-05-05 20:20 43.07101 -65.02530 36935 ft 516 kts 58°
2026-05-05 20:21 43.10718 -64.94055 36934 ft 515 kts 58°
2026-05-05 20:21 43.14326 -64.85579 36951 ft 515 kts 58°
2026-05-05 20:22 43.17924 -64.77100 36971 ft 516 kts 58°
2026-05-05 20:22 43.21524 -64.68591 36971 ft 516 kts 58°
2026-05-05 20:23 43.25122 -64.60063 36978 ft 516 kts 58°
2026-05-05 20:23 43.28706 -64.51541 36979 ft 515 kts 58°
2026-05-05 20:24 43.32263 -64.43060 36979 ft 515 kts 58°
2026-05-05 20:24 43.35831 -64.34528 36955 ft 515 kts 58°
2026-05-05 20:25 43.39392 -64.25978 36962 ft 515 kts 58°
2026-05-05 20:25 43.42935 -64.17458 36962 ft 515 kts 58°
2026-05-05 20:26 43.46500 -64.08857 36962 ft 515 kts 58°
2026-05-05 20:26 43.50023 -64.00331 36962 ft 514 kts 58°
2026-05-05 20:27 43.53549 -63.91774 36971 ft 514 kts 58°
2026-05-05 20:27 43.57082 -63.83179 36971 ft 515 kts 58°
2026-05-05 20:28 43.60602 -63.74584 36973 ft 515 kts 58°
2026-05-05 20:28 43.64112 -63.65989 36976 ft 515 kts 58°
2026-05-05 20:29 43.67628 -63.57349 36979 ft 515 kts 58°
2026-05-05 20:29 43.71133 -63.48713 36984 ft 515 kts 58°
2026-05-05 20:30 43.74618 -63.40101 36998 ft 516 kts 58°
2026-05-05 20:30 43.78117 -63.31429 36999 ft 516 kts 58°
2026-05-05 20:31 43.81607 -63.22753 36999 ft 517 kts 58°
2026-05-05 20:31 43.85096 -63.14049 36999 ft 517 kts 58°
2026-05-05 20:32 43.88584 -63.05325 37007 ft 518 kts 59°
2026-05-05 20:32 43.92072 -62.96572 37008 ft 518 kts 59°
2026-05-05 20:33 43.95561 -62.87789 37008 ft 519 kts 59°
2026-05-05 20:33 43.99036 -62.79014 37026 ft 519 kts 59°
2026-05-05 20:34 44.02505 -62.70225 37028 ft 519 kts 58°
2026-05-05 20:34 44.05975 -62.61407 37026 ft 519 kts 58°
2026-05-05 20:35 44.09419 -62.52633 37026 ft 519 kts 59°
2026-05-05 20:35 44.12866 -62.43821 37026 ft 519 kts 59°
2026-05-05 20:36 44.16312 -62.34975 37026 ft 520 kts 59°
2026-05-05 20:36 44.19758 -62.26106 37033 ft 520 kts 59°
2026-05-05 20:37 44.23196 -62.17238 37034 ft 520 kts 59°
2026-05-05 20:37 44.26626 -62.08363 37033 ft 520 kts 59°
2026-05-05 20:38 44.30045 -61.99483 37038 ft 520 kts 59°
2026-05-05 20:38 44.33461 -61.90581 37033 ft 520 kts 59°
2026-05-05 20:39 44.36872 -61.81659 37049 ft 520 kts 59°
2026-05-05 20:39 44.40287 -61.72708 37050 ft 521 kts 59°
2026-05-05 20:40 44.43681 -61.63769 37048 ft 521 kts 59°
2026-05-05 20:40 44.47083 -61.54798 37049 ft 521 kts 59°
2026-05-05 20:41 44.50456 -61.45882 37046 ft 521 kts 59°
2026-05-05 20:41 44.53829 -61.36923 37055 ft 521 kts 59°
2026-05-05 20:42 44.57204 -61.27918 37047 ft 521 kts 59°
2026-05-05 20:42 44.60598 -61.18842 37045 ft 521 kts 59°
2026-05-05 20:43 44.63963 -61.09815 37046 ft 522 kts 59°
2026-05-05 20:43 44.67297 -61.00839 37045 ft 522 kts 59°
2026-05-05 20:44 44.70659 -60.91763 37045 ft 522 kts 59°
2026-05-05 20:44 44.74009 -60.82694 37045 ft 522 kts 59°
2026-05-05 20:45 44.79012 -60.69081 37044 ft 523 kts 59°
2026-05-05 20:45 44.82353 -60.59950 37045 ft 523 kts 59°
2026-05-05 20:46 44.85673 -60.50849 37044 ft 523 kts 59°
2026-05-05 20:46 44.88975 -60.41769 37047 ft 523 kts 59°
2026-05-05 20:47 44.92288 -60.32630 37040 ft 523 kts 59°
2026-05-05 20:47 44.95600 -60.23464 37036 ft 524 kts 59°
2026-05-05 20:48 44.98900 -60.14292 37031 ft 523 kts 59°
2026-05-05 20:48 45.02185 -60.05133 37028 ft 524 kts 59°
2026-05-05 20:49 45.05473 -59.95945 37050 ft 524 kts 59°
2026-05-05 20:49 45.08761 -59.86719 37056 ft 525 kts 59°
2026-05-05 20:50 45.11491 -59.79039 37054 ft 525 kts 59°
2026-05-05 20:50 45.15296 -59.68295 37047 ft 526 kts 59°
2026-05-05 20:51 45.18568 -59.59010 37047 ft 526 kts 59°
2026-05-05 20:51 45.21831 -59.49728 37034 ft 526 kts 59°
2026-05-05 20:52 45.25092 -59.40420 37032 ft 526 kts 59°
2026-05-05 20:52 45.28344 -59.31110 37026 ft 527 kts 59°
2026-05-05 20:53 45.31601 -59.21756 37030 ft 527 kts 60°
2026-05-05 20:53 45.34819 -59.12461 37026 ft 527 kts 60°
2026-05-05 20:54 45.38050 -59.03111 37026 ft 528 kts 60°
2026-05-05 20:54 45.41309 -58.93638 37028 ft 528 kts 60°
2026-05-05 20:55 45.44510 -58.84286 37028 ft 529 kts 60°
2026-05-05 20:55 45.47739 -58.74856 37026 ft 528 kts 60°
2026-05-05 20:56 45.50936 -58.65481 37025 ft 529 kts 60°
2026-05-05 20:56 45.54159 -58.56008 37026 ft 529 kts 60°
2026-05-05 20:57 45.57351 -58.46553 37027 ft 530 kts 60°
2026-05-05 20:57 45.60548 -58.37048 37026 ft 530 kts 60°
2026-05-05 20:58 45.63742 -58.27537 37025 ft 531 kts 60°
2026-05-05 20:58 45.66389 -58.19652 37033 ft 530 kts 60°
2026-05-05 20:59 45.69562 -58.10123 37034 ft 531 kts 60°
2026-05-05 20:59 45.72731 -58.00563 37033 ft 531 kts 60°
2026-05-05 21:00 45.75902 -57.91014 37042 ft 531 kts 60°
2026-05-05 21:00 45.79052 -57.81465 37040 ft 531 kts 60°
2026-05-05 21:01 45.82195 -57.71872 37049 ft 531 kts 60°
2026-05-05 21:01 45.85335 -57.62288 37047 ft 532 kts 61°
2026-05-05 21:02 45.88464 -57.52711 37045 ft 532 kts 61°
2026-05-05 21:02 45.91590 -57.43083 37056 ft 532 kts 61°
2026-05-05 21:03 45.94725 -57.33421 37056 ft 532 kts 61°
2026-05-05 21:03 45.97859 -57.23721 37055 ft 533 kts 61°
2026-05-05 21:04 46.00954 -57.14107 37064 ft 534 kts 62°
2026-05-05 21:04 46.04065 -57.04405 37064 ft 534 kts 61°
2026-05-05 21:05 46.07163 -56.94675 37062 ft 534 kts 62°
2026-05-05 21:05 46.10257 -56.84934 37066 ft 535 kts 62°
2026-05-05 21:06 46.13362 -56.75128 37068 ft 536 kts 62°
2026-05-05 21:06 46.16429 -56.65398 37072 ft 536 kts 62°
2026-05-05 21:07 46.19511 -56.55620 37076 ft 536 kts 62°
2026-05-05 21:07 46.22576 -56.45813 37074 ft 536 kts 62°
2026-05-05 21:08 46.25637 -56.35964 37064 ft 537 kts 62°
2026-05-05 21:08 46.28686 -56.26172 37062 ft 537 kts 62°
2026-05-05 21:09 46.31739 -56.16289 37066 ft 538 kts 62°
2026-05-05 21:09 46.34782 -56.06419 37062 ft 538 kts 62°
2026-05-05 21:10 46.37827 -55.96501 37071 ft 538 kts 62°
2026-05-05 21:10 46.40867 -55.86582 37071 ft 538 kts 63°
2026-05-05 21:11 46.43887 -55.76659 37069 ft 538 kts 63°
2026-05-05 21:11 46.46892 -55.66769 37066 ft 538 kts 63°
2026-05-05 21:12 46.49893 -55.56839 37062 ft 538 kts 63°
2026-05-05 21:12 46.52892 -55.46855 37061 ft 538 kts 63°
2026-05-05 21:13 46.55881 -55.36883 37066 ft 539 kts 63°
2026-05-05 21:13 46.58866 -55.26877 37064 ft 540 kts 63°
2026-05-05 21:14 46.61833 -55.16905 37054 ft 540 kts 64°
2026-05-05 21:14 46.64813 -55.06860 37052 ft 541 kts 64°
2026-05-05 21:15 46.67772 -54.96845 37058 ft 541 kts 64°
2026-05-05 21:15 46.70751 -54.86712 37046 ft 541 kts 64°
2026-05-05 21:16 46.73680 -54.76691 37043 ft 535 kts 63°
2026-05-05 21:16 46.76588 -54.66711 37054 ft 532 kts 63°
2026-05-05 21:17 46.79461 -54.56828 37054 ft 532 kts 63°
2026-05-05 21:17 46.82334 -54.46876 37034 ft 532 kts 63°
2026-05-05 21:18 46.85195 -54.36929 37028 ft 533 kts 63°
2026-05-05 21:18 46.88061 -54.26944 37027 ft 532 kts 63°
2026-05-05 21:19 46.90903 -54.16950 37029 ft 532 kts 63°
2026-05-05 21:19 46.93757 -54.06926 37016 ft 533 kts 63°
2026-05-05 21:20 46.96588 -53.96968 37017 ft 533 kts 63°
2026-05-05 21:20 46.99422 -53.86911 37017 ft 534 kts 64°
2026-05-05 21:21 47.02242 -53.76852 37018 ft 534 kts 64°
2026-05-05 21:21 47.05067 -53.66767 37018 ft 534 kts 64°
2026-05-05 21:22 47.07878 -53.56677 37017 ft 535 kts 64°
2026-05-05 21:22 47.10684 -53.46544 37018 ft 535 kts 64°
2026-05-05 21:23 47.13486 -53.36406 37018 ft 535 kts 64°
2026-05-05 21:23 47.16259 -53.26321 37018 ft 536 kts 64°
2026-05-05 21:24 47.19051 -53.16129 37018 ft 536 kts 64°
2026-05-05 21:24 47.21830 -53.05943 37016 ft 536 kts 65°
2026-05-05 21:25 47.24595 -52.95755 37017 ft 537 kts 65°
2026-05-05 21:25 47.27339 -52.85600 37017 ft 537 kts 65°
2026-05-05 21:26 47.30091 -52.75377 37018 ft 537 kts 65°
2026-05-05 21:26 47.32837 -52.65124 37017 ft 538 kts 65°
2026-05-05 21:27 47.35578 -52.54846 37017 ft 538 kts 65°
2026-05-05 21:27 47.38305 -52.44586 37017 ft 538 kts 65°
2026-05-05 21:28 47.41027 -52.34297 37017 ft 538 kts 65°
2026-05-05 21:28 47.43732 -52.24033 37017 ft 538 kts 65°
2026-05-05 21:29 47.46457 -52.13655 37017 ft 538 kts 66°
2026-05-05 21:29 47.49128 -52.03403 37017 ft 538 kts 66°
2026-05-05 21:30 47.51827 -51.93028 37017 ft 539 kts 66°
2026-05-05 21:30 47.54524 -51.82654 37017 ft 540 kts 66°
2026-05-05 21:31 47.57195 -51.72333 37020 ft 540 kts 66°
2026-05-05 21:31 47.59881 -51.61906 37018 ft 540 kts 66°
2026-05-05 21:32 47.62555 -51.51474 37017 ft 540 kts 66°
2026-05-05 21:32 47.65195 -51.41123 37010 ft 540 kts 66°
2026-05-05 21:33 47.67844 -51.30689 37009 ft 541 kts 66°
2026-05-05 21:33 47.70494 -51.20210 37008 ft 542 kts 67°
2026-05-05 21:34 47.73139 -51.09696 37008 ft 541 kts 67°
2026-05-05 21:34 47.75764 -50.99218 37008 ft 542 kts 67°
2026-05-05 21:35 47.78384 -50.88709 37000 ft 542 kts 68°
2026-05-05 21:35 47.80990 -50.78205 36998 ft 542 kts 68°
2026-05-05 21:36 47.83592 -50.67668 36999 ft 542 kts 68°
2026-05-05 21:36 47.86176 -50.57152 36999 ft 543 kts 68°
2026-05-05 21:37 47.88756 -50.46609 36999 ft 543 kts 68°
2026-05-05 21:37 47.91335 -50.36018 36999 ft 543 kts 68°
2026-05-05 21:38 47.93903 -50.25424 36999 ft 543 kts 69°
2026-05-05 21:38 47.96466 -50.14796 36999 ft 543 kts 69°
2026-05-05 21:39 47.98998 -50.04248 36999 ft 543 kts 69°
2026-05-05 21:39 48.00989 -49.93321 36998 ft 544 kts 76°
2026-05-05 21:40 48.02610 -49.82272 36999 ft 545 kts 77°
2026-05-05 21:40 48.04176 -49.71255 36999 ft 545 kts 77°
2026-05-05 21:41 48.05751 -49.60163 36999 ft 544 kts 77°
2026-05-05 21:41 48.07317 -49.49112 36998 ft 544 kts 77°
2026-05-05 21:42 48.08882 -49.37992 36999 ft 545 kts 77°
2026-05-05 21:42 48.10432 -49.26904 36998 ft 545 kts 77°
2026-05-05 21:43 48.11961 -49.15869 36999 ft 545 kts 78°
2026-05-05 21:43 48.13490 -49.04751 36999 ft 545 kts 78°
2026-05-05 21:44 48.15010 -48.93612 36999 ft 546 kts 78°
2026-05-05 21:44 48.16520 -48.82467 36999 ft 546 kts 78°
2026-05-05 21:45 48.18021 -48.71288 36999 ft 547 kts 78°
2026-05-05 21:45 48.19263 -48.61981 36999 ft 547 kts 78°
2026-05-05 21:46 48.20747 -48.50781 36999 ft 548 kts 78°
2026-05-05 21:46 48.22463 -48.37717 36999 ft 549 kts 79°
2026-05-05 21:47 48.23683 -48.28358 36999 ft 549 kts 79°
2026-05-05 21:47 48.25137 -48.17112 36999 ft 550 kts 79°
2026-05-05 21:48 48.26581 -48.05853 36998 ft 550 kts 79°
2026-05-05 21:48 48.28015 -47.94582 36999 ft 550 kts 79°
2026-05-05 21:49 48.29432 -47.83336 36999 ft 550 kts 79°
2026-05-05 21:49 48.30847 -47.72027 36999 ft 550 kts 79°
2026-05-05 21:50 48.32246 -47.60754 36999 ft 550 kts 79°
2026-05-05 21:50 48.33638 -47.49444 37005 ft 549 kts 79°
2026-05-05 21:51 48.35019 -47.38140 37008 ft 549 kts 79°
2026-05-05 21:51 48.36377 -47.26922 37008 ft 549 kts 80°
2026-05-05 21:52 48.38404 -47.09965 37008 ft 548 kts 80°
2026-05-05 21:53 48.39742 -46.98652 37008 ft 548 kts 80°
2026-05-05 21:53 48.41065 -46.87377 37009 ft 549 kts 80°
2026-05-05 21:54 48.42384 -46.76035 37008 ft 549 kts 80°
2026-05-05 21:54 48.43682 -46.64772 37008 ft 549 kts 81°
2026-05-05 21:55 48.44980 -46.53417 37008 ft 549 kts 81°
2026-05-05 21:55 48.46256 -46.42129 37008 ft 549 kts 81°
2026-05-05 21:56 48.47537 -46.30716 37008 ft 549 kts 81°
2026-05-05 21:56 48.48798 -46.19354 37017 ft 549 kts 81°
2026-05-05 21:57 48.50041 -46.08051 37017 ft 549 kts 81°
2026-05-05 21:57 48.51278 -45.96692 37017 ft 549 kts 81°
2026-05-05 21:58 48.52505 -45.85336 37017 ft 550 kts 81°
2026-05-05 21:58 48.53724 -45.73922 37017 ft 550 kts 81°
2026-05-05 21:59 48.54933 -45.62507 37018 ft 550 kts 81°
2026-05-05 21:59 48.56122 -45.51167 37017 ft 549 kts 82°
2026-05-05 22:00 48.57307 -45.39756 37017 ft 549 kts 82°
2026-05-05 22:00 48.58478 -45.28361 37034 ft 549 kts 82°
2026-05-05 22:01 48.59643 -45.16916 37042 ft 549 kts 82°
2026-05-05 22:01 48.60791 -45.05513 37034 ft 549 kts 82°
2026-05-05 22:02 48.61927 -44.94119 37034 ft 549 kts 82°
2026-05-05 22:02 48.63054 -44.82693 37044 ft 550 kts 82°
2026-05-05 22:03 48.64163 -44.71334 37044 ft 550 kts 83°
2026-05-05 22:03 48.65271 -44.59870 37047 ft 550 kts 83°
2026-05-05 22:04 48.66363 -44.48433 37043 ft 550 kts 83°
2026-05-05 22:04 48.67450 -44.36927 37050 ft 550 kts 83°
2026-05-05 22:05 48.68517 -44.25520 37058 ft 551 kts 83°
2026-05-05 22:05 48.69584 -44.13975 37054 ft 551 kts 83°
2026-05-05 22:06 48.70627 -44.02550 37053 ft 551 kts 83°
2026-05-05 22:06 48.71675 -43.90973 37054 ft 552 kts 83°
2026-05-05 22:07 48.72700 -43.79508 37058 ft 552 kts 84°
2026-05-05 22:07 48.73720 -43.67959 37063 ft 553 kts 84°
2026-05-05 22:08 48.74725 -43.56438 37063 ft 552 kts 84°
2026-05-05 22:08 48.75716 -43.44959 37066 ft 551 kts 84°
2026-05-05 22:09 48.76699 -43.33418 37063 ft 551 kts 84°
2026-05-05 22:09 48.77669 -43.21898 37073 ft 552 kts 84°
2026-05-05 22:10 48.78630 -43.10333 37072 ft 552 kts 84°
2026-05-05 22:10 48.79580 -42.98757 37073 ft 552 kts 84°
2026-05-05 22:11 48.80517 -42.87204 37073 ft 553 kts 85°
2026-05-05 22:11 48.81445 -42.75620 37073 ft 553 kts 85°
2026-05-05 22:12 48.82363 -42.64024 37083 ft 553 kts 85°
2026-05-05 22:12 48.83263 -42.52476 37083 ft 554 kts 85°
2026-05-05 22:13 48.84158 -42.40847 37081 ft 554 kts 85°
2026-05-05 22:13 48.85042 -42.29214 37082 ft 554 kts 85°
2026-05-05 22:14 48.85909 -42.17651 37089 ft 555 kts 85°
2026-05-05 22:14 48.86772 -42.05962 37100 ft 555 kts 85°
2026-05-05 22:15 48.87618 -41.94337 37095 ft 555 kts 86°
2026-05-05 22:15 48.88459 -41.82634 37115 ft 556 kts 86°
2026-05-05 22:16 48.89286 -41.70950 37123 ft 556 kts 86°
2026-05-05 22:16 48.90101 -41.59244 37198 ft 557 kts 86°
2026-05-05 22:17 48.90901 -41.47604 37201 ft 556 kts 86°
2026-05-05 22:17 48.91691 -41.35883 37202 ft 556 kts 86°
2026-05-05 22:18 48.92470 -41.24226 37202 ft 556 kts 86°
2026-05-05 22:18 48.93243 -41.12485 37202 ft 556 kts 86°
2026-05-05 22:19 48.93999 -41.00793 37212 ft 556 kts 87°
2026-05-05 22:19 48.94739 -40.89132 37211 ft 556 kts 87°
2026-05-05 22:20 48.95471 -40.77404 37212 ft 556 kts 87°
2026-05-05 22:20 48.96193 -40.65682 37211 ft 557 kts 87°
2026-05-05 22:21 48.96905 -40.53926 37211 ft 557 kts 87°
2026-05-05 22:21 48.97602 -40.42198 37218 ft 557 kts 87°
2026-05-05 22:22 48.98290 -40.30426 37218 ft 557 kts 88°
2026-05-05 22:22 48.98964 -40.18674 37219 ft 557 kts 88°
2026-05-05 22:23 48.99622 -40.06987 37221 ft 557 kts 88°
2026-05-05 22:23 49.00695 -39.95260 37221 ft 560 kts 81°
2026-05-05 22:24 49.02329 -39.83617 37229 ft 562 kts 79°
2026-05-05 22:24 49.04034 -39.71993 37230 ft 562 kts 79°
2026-05-05 22:25 49.05765 -39.60032 37231 ft 562 kts 79°
2026-05-05 22:25 49.07363 -39.48768 37231 ft 562 kts 79°
2026-05-05 22:26 49.09006 -39.37053 37227 ft 562 kts 80°
2026-05-05 22:26 49.10628 -39.25422 37235 ft 562 kts 80°
2026-05-05 22:27 49.12235 -39.13807 37236 ft 562 kts 80°
2026-05-05 22:27 49.13840 -39.02102 37237 ft 562 kts 80°
2026-05-05 22:28 49.15434 -38.90405 37244 ft 562 kts 80°
2026-05-05 22:28 49.17018 -38.78676 37236 ft 563 kts 81°
2026-05-05 22:29 49.18586 -38.66952 37248 ft 563 kts 81°
2026-05-05 22:29 49.20142 -38.55225 37248 ft 562 kts 81°
2026-05-05 22:30 49.21686 -38.43508 37253 ft 562 kts 81°
2026-05-05 22:30 49.23210 -38.31851 37257 ft 561 kts 81°
2026-05-05 22:31 49.24734 -38.20099 37257 ft 560 kts 81°
2026-05-05 22:31 49.26231 -38.08447 37257 ft 560 kts 81°
2026-05-05 22:32 49.27720 -37.96752 37257 ft 559 kts 81°
2026-05-05 22:32 49.29195 -37.85049 37257 ft 560 kts 81°
2026-05-05 22:33 49.30661 -37.73343 37263 ft 560 kts 81°
2026-05-05 22:33 49.31879 -37.63538 37266 ft 560 kts 81°
2026-05-05 22:34 49.33325 -37.51814 37266 ft 561 kts 81°
2026-05-05 22:34 49.34763 -37.40032 37266 ft 561 kts 81°
2026-05-05 22:35 49.36188 -37.28261 37266 ft 562 kts 81°
2026-05-05 22:35 49.37595 -37.16536 37266 ft 563 kts 81°
2026-05-05 22:36 49.38997 -37.04738 37253 ft 563 kts 81°
2026-05-05 22:36 49.40391 -36.92904 37220 ft 563 kts 82°
2026-05-05 22:37 49.41779 -36.80996 37222 ft 563 kts 81°
2026-05-05 22:37 49.43143 -36.69184 37221 ft 563 kts 82°
2026-05-05 22:38 49.44501 -36.57334 37228 ft 562 kts 82°
2026-05-05 22:38 49.45841 -36.45526 37231 ft 562 kts 82°
2026-05-05 22:39 49.47169 -36.33716 37228 ft 560 kts 82°
2026-05-05 22:39 49.48485 -36.21880 37231 ft 560 kts 82°
2026-05-05 22:40 49.49780 -36.10135 37227 ft 559 kts 82°
2026-05-05 22:40 49.51064 -35.98364 37229 ft 558 kts 82°
2026-05-05 22:41 49.52335 -35.86600 37227 ft 558 kts 82°
2026-05-05 22:41 49.53599 -35.74784 37231 ft 557 kts 82°
2026-05-05 22:42 49.54847 -35.62996 37231 ft 558 kts 82°
2026-05-05 22:42 49.56085 -35.51204 37238 ft 558 kts 82°
2026-05-05 22:43 49.57312 -35.39368 37236 ft 559 kts 82°
2026-05-05 22:43 49.58528 -35.27516 37240 ft 560 kts 82°
2026-05-05 22:44 49.59727 -35.15730 37241 ft 561 kts 82°
2026-05-05 22:44 49.60933 -35.03741 37240 ft 561 kts 82°
2026-05-05 22:45 49.62117 -34.91844 37241 ft 562 kts 82°
2026-05-05 22:45 49.63288 -34.79936 37240 ft 561 kts 82°
2026-05-05 22:46 49.64438 -34.68112 37241 ft 560 kts 82°
2026-05-05 22:46 49.65582 -34.56234 37233 ft 559 kts 82°
2026-05-05 22:47 49.66712 -34.44379 37241 ft 557 kts 82°
2026-05-05 22:47 49.67827 -34.32550 37239 ft 556 kts 83°
2026-05-05 22:48 49.68924 -34.20750 37248 ft 554 kts 83°
2026-05-05 22:48 49.70009 -34.08950 37248 ft 553 kts 83°
2026-05-05 22:49 49.71079 -33.97189 37252 ft 553 kts 83°
2026-05-05 22:49 49.72136 -33.85416 37319 ft 552 kts 83°
2026-05-05 22:50 49.73180 -33.73659 37321 ft 552 kts 83°
2026-05-05 22:50 49.74210 -33.61915 37321 ft 552 kts 83°
2026-05-05 22:51 49.75234 -33.50115 37321 ft 553 kts 83°
2026-05-05 22:51 49.76247 -33.38311 37321 ft 554 kts 83°
2026-05-05 22:52 49.77248 -33.26495 37322 ft 554 kts 83°
2026-05-05 22:52 49.78236 -33.14685 37321 ft 555 kts 83°
2026-05-05 22:53 49.79215 -33.02835 37321 ft 554 kts 83°
2026-05-05 22:53 49.80172 -32.91079 37321 ft 554 kts 83°
2026-05-05 22:54 49.81130 -32.79180 37330 ft 553 kts 83°
2026-05-05 22:54 49.82061 -32.67460 37330 ft 551 kts 83°
2026-05-05 22:55 49.82984 -32.55677 37330 ft 549 kts 83°
2026-05-05 22:55 49.83888 -32.43977 37330 ft 547 kts 83°
2026-05-05 22:56 49.84779 -32.32294 37330 ft 545 kts 83°
2026-05-05 22:56 49.85659 -32.20613 37330 ft 544 kts 83°
2026-05-05 22:57 49.86522 -32.08996 37330 ft 542 kts 83°
2026-05-05 22:57 49.87371 -31.97391 37330 ft 542 kts 83°
2026-05-05 22:58 49.88209 -31.85792 37330 ft 541 kts 83°
2026-05-05 22:58 49.89036 -31.74177 37330 ft 542 kts 83°
2026-05-05 22:59 49.89845 -31.62624 37331 ft 542 kts 83°
2026-05-05 22:59 49.90649 -31.50986 37330 ft 543 kts 83°
2026-05-05 23:00 49.91835 -31.33510 37331 ft 544 kts 83°
2026-05-05 23:00 49.92614 -31.21809 37330 ft 544 kts 83°
2026-05-05 23:01 49.93381 -31.10109 37339 ft 545 kts 83°
2026-05-05 23:01 49.94138 -30.98390 37399 ft 545 kts 83°
2026-05-05 23:02 49.94878 -30.86712 37422 ft 545 kts 83°
2026-05-05 23:02 49.95609 -30.74996 37422 ft 544 kts 83°
2026-05-05 23:03 49.96328 -30.63299 37422 ft 542 kts 83°
2026-05-05 23:03 49.97032 -30.51652 37421 ft 541 kts 83°
2026-05-05 23:04 49.97725 -30.39997 37422 ft 540 kts 83°
2026-05-05 23:04 49.98399 -30.28459 37421 ft 539 kts 83°
2026-05-05 23:05 49.99063 -30.16874 37422 ft 538 kts 83°
2026-05-05 23:05 49.99719 -30.05226 37419 ft 537 kts 83°
2026-05-05 23:06 50.00902 -29.93864 37414 ft 534 kts 76°
2026-05-05 23:06 50.02494 -29.82586 37413 ft 534 kts 75°
2026-05-05 23:07 50.04136 -29.71313 37412 ft 534 kts 75°
2026-05-05 23:07 50.05760 -29.60036 37413 ft 534 kts 75°
2026-05-05 23:08 50.07356 -29.48768 37414 ft 533 kts 75°
2026-05-05 23:08 50.08932 -29.37514 37409 ft 532 kts 75°
2026-05-05 23:09 50.10496 -29.26280 37403 ft 530 kts 75°
2026-05-05 23:09 50.12045 -29.15079 37403 ft 528 kts 75°
2026-05-05 23:10 50.13586 -29.03870 37403 ft 528 kts 75°
2026-05-05 23:10 50.15108 -28.92693 37402 ft 526 kts 75°
2026-05-05 23:11 50.16613 -28.81547 37405 ft 525 kts 75°
2026-05-05 23:11 50.18106 -28.70403 37405 ft 525 kts 75°
2026-05-05 23:12 50.19580 -28.59324 37402 ft 525 kts 75°
2026-05-05 23:12 50.21058 -28.48134 37405 ft 525 kts 75°
2026-05-05 23:13 50.22518 -28.36987 37402 ft 524 kts 75°
2026-05-05 23:13 50.23967 -28.25823 37402 ft 525 kts 75°
2026-05-05 23:14 50.25410 -28.14637 37402 ft 525 kts 75°
2026-05-05 23:14 50.26842 -28.03437 37404 ft 525 kts 76°
2026-05-05 23:15 50.28251 -27.92320 37412 ft 525 kts 76°
2026-05-05 23:15 50.29661 -27.81108 37412 ft 524 kts 76°
2026-05-05 23:16 50.31058 -27.69913 37412 ft 524 kts 76°
2026-05-05 23:16 50.32442 -27.58719 37413 ft 524 kts 76°
2026-05-05 23:17 50.33812 -27.47540 37414 ft 523 kts 76°
2026-05-05 23:17 50.35172 -27.36356 37412 ft 522 kts 76°
2026-05-05 23:18 50.36294 -27.27066 37412 ft 522 kts 76°
2026-05-05 23:18 50.37630 -27.15911 37412 ft 521 kts 76°
2026-05-05 23:19 50.38953 -27.04766 37412 ft 520 kts 76°
2026-05-05 23:19 50.40267 -26.93606 37404 ft 520 kts 76°
2026-05-05 23:20 50.41621 -26.82011 37404 ft 519 kts 76°
2026-05-05 23:20 50.42857 -26.71323 37403 ft 519 kts 76°
2026-05-05 23:21 50.44136 -26.60169 37404 ft 519 kts 76°
2026-05-05 23:21 50.45394 -26.49086 37403 ft 519 kts 76°
2026-05-05 23:22 50.46654 -26.37910 37402 ft 520 kts 76°
2026-05-05 23:22 50.47900 -26.26756 37402 ft 520 kts 76°
2026-05-05 23:23 50.49139 -26.15555 37402 ft 520 kts 76°
2026-05-05 23:23 50.50362 -26.04379 37402 ft 520 kts 76°
2026-05-05 23:24 50.51582 -25.93138 37402 ft 520 kts 76°
2026-05-05 23:24 50.52783 -25.81971 37402 ft 519 kts 76°
2026-05-05 23:25 50.53979 -25.70752 37405 ft 519 kts 76°
2026-05-05 23:25 50.55154 -25.59635 37396 ft 518 kts 76°
2026-05-05 23:26 50.56327 -25.48404 37393 ft 518 kts 76°
2026-05-05 23:26 50.57484 -25.37221 37397 ft 517 kts 76°
2026-05-05 23:27 50.58628 -25.26057 37393 ft 516 kts 76°
2026-05-05 23:27 50.59753 -25.14979 37393 ft 516 kts 76°
2026-05-05 23:28 50.60874 -25.03834 37335 ft 515 kts 76°
2026-05-05 23:28 50.61982 -24.92683 37330 ft 515 kts 76°
2026-05-05 23:29 50.63079 -24.81548 37322 ft 514 kts 76°
2026-05-05 23:29 50.64167 -24.70415 37321 ft 514 kts 77°
2026-05-05 23:30 50.65243 -24.59263 37329 ft 513 kts 76°
2026-05-05 23:30 50.66303 -24.48169 37330 ft 513 kts 77°
2026-05-05 23:31 50.67350 -24.37088 37330 ft 513 kts 77°
2026-05-05 23:31 50.68392 -24.25948 37330 ft 514 kts 77°
2026-05-05 23:32 50.69419 -24.14837 37324 ft 514 kts 77°
2026-05-05 23:32 50.70446 -24.03615 37321 ft 514 kts 77°
2026-05-05 23:33 50.71457 -23.92457 37321 ft 514 kts 77°
2026-05-05 23:33 50.72457 -23.81287 37321 ft 514 kts 77°
2026-05-05 23:34 50.73448 -23.70093 37321 ft 513 kts 77°
2026-05-05 23:34 50.74421 -23.58957 37321 ft 513 kts 77°
2026-05-05 23:35 50.75388 -23.47790 37322 ft 513 kts 78°
2026-05-05 23:35 50.76343 -23.36659 37321 ft 512 kts 78°
2026-05-05 23:36 50.77288 -23.25487 37321 ft 512 kts 78°
2026-05-05 23:36 50.78216 -23.14388 37321 ft 512 kts 78°
2026-05-05 23:37 50.79139 -23.03228 37321 ft 513 kts 78°
2026-05-05 23:37 50.80053 -22.92033 37321 ft 513 kts 78°
2026-05-05 23:38 50.80949 -22.80922 37312 ft 513 kts 79°
2026-05-05 23:38 50.81843 -22.69702 37312 ft 513 kts 79°
2026-05-05 23:39 50.82727 -22.58455 37312 ft 513 kts 79°
2026-05-05 23:39 50.83596 -22.47260 37255 ft 513 kts 79°
2026-05-05 23:40 50.84457 -22.36034 37248 ft 513 kts 79°
2026-05-05 23:40 50.85304 -22.24831 37248 ft 513 kts 79°
2026-05-05 23:41 50.86140 -22.13637 37248 ft 513 kts 79°
2026-05-05 23:41 50.86972 -22.02384 37248 ft 514 kts 79°
2026-05-05 23:42 50.87794 -21.91141 37178 ft 514 kts 80°
2026-05-05 23:42 50.88601 -21.79892 37185 ft 514 kts 80°
2026-05-05 23:43 50.89395 -21.68644 37186 ft 514 kts 80°
2026-05-05 23:43 50.90182 -21.57381 37194 ft 514 kts 81°
2026-05-05 23:44 50.90951 -21.46201 37188 ft 514 kts 81°
2026-05-05 23:44 50.91715 -21.34943 37186 ft 514 kts 81°
2026-05-05 23:45 50.92468 -21.23668 37166 ft 514 kts 81°
2026-05-05 23:45 50.93209 -21.12422 37167 ft 514 kts 81°
2026-05-05 23:46 50.93941 -21.01144 37167 ft 514 kts 81°
2026-05-05 23:46 50.94662 -20.89868 37167 ft 514 kts 81°
2026-05-05 23:47 50.95371 -20.78577 37167 ft 514 kts 82°
2026-05-05 23:47 50.96070 -20.67306 37159 ft 514 kts 82°
2026-05-05 23:48 50.96758 -20.56017 37167 ft 514 kts 82°
2026-05-05 23:48 50.97436 -20.44718 37159 ft 514 kts 82°
2026-05-05 23:49 50.98104 -20.33411 37156 ft 515 kts 82°
2026-05-05 23:49 50.98757 -20.22127 37156 ft 515 kts 82°
2026-05-05 23:50 50.99404 -20.10800 37155 ft 514 kts 82°
2026-05-05 23:50 51.00037 -19.99496 37156 ft 514 kts 82°
2026-05-05 23:51 51.00422 -19.88159 37156 ft 515 kts 86°
2026-05-05 23:51 51.00555 -19.76779 37156 ft 515 kts 87°
2026-05-05 23:52 51.00704 -19.65368 37156 ft 516 kts 86°
2026-05-05 23:52 51.00893 -19.54012 37156 ft 515 kts 86°
2026-05-05 23:53 51.01087 -19.42627 37147 ft 516 kts 86°
2026-05-05 23:53 51.01273 -19.31251 37146 ft 515 kts 86°
2026-05-05 23:54 51.01445 -19.19880 37147 ft 515 kts 87°
2026-05-05 23:54 51.01605 -19.08503 37147 ft 515 kts 87°
2026-05-05 23:55 51.01753 -18.97094 37147 ft 516 kts 87°
2026-05-05 23:55 51.01890 -18.85721 37147 ft 515 kts 87°
2026-05-05 23:56 51.02017 -18.74359 37147 ft 515 kts 87°
2026-05-05 23:56 51.02133 -18.62964 37146 ft 515 kts 87°
2026-05-05 23:57 51.02237 -18.51591 37137 ft 515 kts 88°
2026-05-05 23:57 51.02330 -18.40190 37137 ft 516 kts 88°
2026-05-05 23:58 51.02412 -18.28875 37137 ft 516 kts 88°
2026-05-05 23:58 51.02482 -18.17439 37137 ft 516 kts 88°
2026-05-05 23:59 51.02542 -18.06081 37137 ft 516 kts 88°
2026-05-05 23:59 51.02590 -17.94701 37137 ft 515 kts 88°
2026-05-06 00:00 51.02629 -17.83251 37139 ft 515 kts 88°
2026-05-06 00:00 51.02655 -17.71948 37137 ft 515 kts 89°
2026-05-06 00:01 51.02670 -17.60580 37135 ft 515 kts 89°
2026-05-06 00:01 51.02675 -17.49177 37128 ft 515 kts 89°
2026-05-06 00:02 51.02669 -17.37826 37128 ft 515 kts 89°
2026-05-06 00:02 51.02655 -17.28292 37128 ft 515 kts 89°
2026-05-06 00:03 51.02629 -17.16997 37128 ft 515 kts 89°
2026-05-06 00:03 51.02592 -17.05628 37128 ft 515 kts 89°
2026-05-06 00:04 51.02542 -16.94187 37128 ft 515 kts 89°
2026-05-06 00:04 51.02482 -16.82812 37128 ft 515 kts 89°
2026-05-06 00:05 51.02373 -16.65797 37121 ft 514 kts 90°
2026-05-06 00:06 51.02287 -16.54517 37121 ft 514 kts 90°
2026-05-06 00:06 51.02189 -16.43159 37122 ft 514 kts 90°
2026-05-06 00:07 51.02082 -16.32022 37093 ft 482 kts 90°